Location: Chèvreville
(49.1099°N, 2.8495°E)
Time: 10:41:14
(UTC+00:00)

AO-85 - Visible Passes

Search period start: 30 November 2023 00:00
Search period end: 10 December 2023 00:00
Orbit: 516 x 753 km, 64.8° (Epoch: 04 January)

Date Brightness Start Highest point End Pass type
(mag) Time Alt. Az. Time Alt. Az. Time Alt. Az.
30 Nov ? 16:56:58 10° NNW 16:58:24 11° NNW 16:59:52 10° N visible
01 Dec ? 17:18:38 10° N 17:18:55 10° N 17:19:13 10° N visible
02 Dec ? 17:38:58 10° N 17:39:27 10° N 17:39:58 10° NNE visible
03 Dec ? 17:58:20 10° N 17:59:26 12° N 17:59:26 12° N visible
04 Dec ? 18:17:47 10° NNW 18:18:46 13° N 18:18:46 13° N visible
05 Dec ? 16:58:11 10° N 16:59:00 10° N 16:59:49 10° NNE visible
05 Dec ? 18:37:16 10° NNW 18:38:07 14° N 18:38:07 14° N visible
06 Dec ? 17:17:36 10° N 17:19:28 12° NNE 17:20:13 12° NNE visible
06 Dec ? 18:56:48 10° NNW 18:57:30 14° NNW 18:57:30 14° NNW visible
07 Dec ? 17:37:03 10° NNW 17:39:38 16° NNE 17:39:38 16° NNE visible
07 Dec ? 19:16:24 10° NNW 19:16:56 13° NNW 19:16:56 13° NNW visible
08 Dec ? 17:56:32 10° NNW 17:59:07 21° NNE 17:59:07 21° NNE visible
08 Dec ? 19:36:06 10° NW 19:36:25 12° NW 19:36:25 12° NW visible
09 Dec ? 16:36:50 10° N 16:38:54 13° NNE 16:41:02 10° NE visible
09 Dec ? 18:16:03 10° NNW 18:18:40 28° N 18:18:40 28° N visible
